NOAA 16 DEB, 41207

Orbit data source: Space-Track

NOAA 16 DEB, 41207 is space debris in SSO originally from a launch on Thu, 21 Sep 2000 UTC launched from the Air Force Western Test Range (AFWTR). Debris objects in space refer to the collection of defunct objects orbiting the Earth. Examples of debris include non-operational satellites, rocket bodies, and fragments generated from explosions, collisions, or faulty payload assembly.

Loading next visibility...
Identifier
41207, 2000-055DL
Orbit
SSO
Country
Flag of USUS
Related business
Manufacturer
Unknown
Mission
Spacecraft
Bus & Motor
Unknown
Mass
Unknown
Launch date (UTC)
2000-09-21 (25 years ago)
Launch vehicle
Unknown
Launch site
Air Force Western Test Range (AFWTR)
Object type
Payload
Rocket body
Debris
Shape & HBR
Unknown shape, 0.1 m
Radar Cross Section
Small (<0.1 m²)

Expand to show TLE details & history
Last TLE update: 14 hours ago

TLE from 14 hours ago
0 NOAA 16 DEB
1 41207U 00055DL  25291.60215196  .00037172  00000-0  60853-2 0  9997
2 41207  98.9152 167.6021 0038547 300.1624  59.5762 14.70150664516848
Epoch: 2025-10-18T14:27Z
TLE epoch observation values (Epoch: 2025-10-18T14:27:05.929Z)
Latitude
-0.00007°
Longitude
-76.50341°
Altitude
649.899 km
Speed
7.54 km/s
True Right ascension
11h 10m 24s
True Declination
0° 00' 00"
Sunlit
Object was in daylight at epoch
Visualization orbit readout
Latitude
Unknown
Longitude
Unknown
Altitude
Unknown
Speed
Unknown
Apparent Right ascension
Unknown
Apparent Declination
Unknown
Sunlit
N/A
Visualization observer readout
Local Sidereal Time
23:19:41
Azimuth
Unknown
Elevation
Unknown
Doppler factor
Unknown
Orbital elements
Apogee altitude
684.81 km
Perigee altitude
630.568 km
Semi-major axis
7,035.826 km
Eccentricity
0.00385
Inclination
98.9152°
RAAN
167.6021°
Arg. of periapsis
300.1624°
True anomaly
59.95802°
Mean anomaly
59.5762°
Eccentric anomaly
59.76702°
Mean motion
3.67765 °/min
Orbital period
97.89 mins
BSTAR
0.0060853
Loading maneuver chart data...
Computing Atmospheric mass density...

Documentation

Showing up to 5 results
|